Hourly Weather Nakuru

Today, 15 July, Wednesday

Time Temperature Precipitation Wind Pressure Humidity
00:00 +15°C° 0.1 mm 1 mps 604 mmHg 91%
01:00 +15°C° 0.1 mm 1 mps 604 mmHg 92%
02:00 +15°C° 0 mm 2 mps 604 mmHg 93%
03:00 +14°C° 0.1 mm 2 mps 604 mmHg 92%
04:00 +14°C° 0.1 mm 1 mps 604 mmHg 92%
05:00 +14°C° 0.1 mm 1 mps 604 mmHg 92%
06:00 +15°C° 0 mm 1 mps 605 mmHg 89%
07:00 +16°C° 0 mm 1 mps 606 mmHg 86%
08:00 +18°C° 0 mm 2 mps 607 mmHg 82%
09:00 +19°C° 0.5 mm 2 mps 607 mmHg 78%
10:00 +20°C° 0.5 mm 2 mps 607 mmHg 75%
11:00 +23°C° 0.5 mm 2 mps 608 mmHg 71%
12:00 +21°C° 1.6 mm 2 mps 607 mmHg 73%
13:00 +21°C° 1.6 mm 2 mps 606 mmHg 76%
14:00 +21°C° 0 mm 2 mps 606 mmHg 77%
15:00 +20°C° 1.6 mm 2 mps 606 mmHg 80%
16:00 +19°C° 1.6 mm 2 mps 606 mmHg 84%
17:00 +18°C° 1.6 mm 2 mps 606 mmHg 87%
18:00 +17°C° 0.2 mm 2 mps 605 mmHg 89%
19:00 +16°C° 0.2 mm 2 mps 605 mmHg 90%
20:00 +15°C° 0.2 mm 2 mps 605 mmHg 91%
21:00 +15°C° 0 mm 2 mps 605 mmHg 91%
22:00 +15°C° 0 mm 2 mps 605 mmHg 91%
23:00 +14°C° 0 mm 2 mps 605 mmHg 91%

Tomorrow, 16 July, Thursday

Time Temperature Precipitation Wind Pressure Humidity
00:00 +14°C° 0 mm 2 mps 605 mmHg 91%
01:00 +15°C° 0 mm 2 mps 604 mmHg 90%
02:00 +15°C° 0 mm 2 mps 604 mmHg 90%
03:00 +15°C° 0 mm 2 mps 604 mmHg 91%
04:00 +14°C° 0 mm 2 mps 604 mmHg 92%
05:00 +14°C° 0 mm 2 mps 605 mmHg 93%
06:00 +14°C° 0.1 mm 3 mps 605 mmHg 91%
07:00 +14°C° 0.1 mm 3 mps 606 mmHg 90%
08:00 +16°C° 0.1 mm 3 mps 606 mmHg 89%
09:00 +17°C° 0.1 mm 4 mps 606 mmHg 86%
10:00 +17°C° 0.1 mm 4 mps 606 mmHg 83%
11:00 +18°C° 0.1 mm 4 mps 606 mmHg 80%
12:00 +19°C° 0.2 mm 4 mps 606 mmHg 78%
13:00 +19°C° 0.2 mm 5 mps 606 mmHg 75%
14:00 +20°C° 0.2 mm 5 mps 605 mmHg 73%
15:00 +19°C° 0.2 mm 4 mps 605 mmHg 76%
16:00 +18°C° 0.2 mm 4 mps 605 mmHg 79%
17:00 +17°C° 0.2 mm 4 mps 604 mmHg 82%
18:00 +17°C° 0 mm 3 mps 604 mmHg 83%
19:00 +16°C° 0 mm 3 mps 605 mmHg 84%
20:00 +14°C° 0 mm 3 mps 605 mmHg 85%
21:00 +15°C° 0 mm 2 mps 605 mmHg 85%
22:00 +15°C° 0 mm 2 mps 605 mmHg 85%
23:00 +15°C° 0 mm 2 mps 605 mmHg 84%

Day after tomorrow, 17 July, Friday

Time Temperature Precipitation Wind Pressure Humidity
00:00 +15°C° 0 mm 2 mps 605 mmHg 85%
01:00 +15°C° 0 mm 2 mps 604 mmHg 85%
02:00 +15°C° 0 mm 1 mps 604 mmHg 85%
03:00 +14°C° 0 mm 2 mps 604 mmHg 86%
04:00 +14°C° 0 mm 2 mps 604 mmHg 87%
05:00 +14°C° 0 mm 2 mps 604 mmHg 88%
06:00 +14°C° 0 mm 2 mps 605 mmHg 87%
07:00 +15°C° 0 mm 2 mps 605 mmHg 85%
08:00 +16°C° 0 mm 2 mps 606 mmHg 84%
09:00 +17°C° 0 mm 2 mps 606 mmHg 80%
10:00 +19°C° 0 mm 1 mps 606 mmHg 77%
11:00 +20°C° 0 mm 1 mps 606 mmHg 74%
12:00 +20°C° 0.2 mm 1 mps 606 mmHg 73%
13:00 +21°C° 0.2 mm 1 mps 605 mmHg 72%
14:00 +21°C° 0.2 mm 1 mps 605 mmHg 71%
15:00 +20°C° 0.6 mm 1 mps 604 mmHg 76%
16:00 +19°C° 0.6 mm 1 mps 604 mmHg 81%
17:00 +18°C° 0.6 mm 1 mps 603 mmHg 86%
18:00 +18°C° 0.3 mm 1 mps 604 mmHg 87%
19:00 +16°C° 0.3 mm 1 mps 604 mmHg 88%
20:00 +15°C° 0.3 mm 0 mps 604 mmHg 89%
21:00 +14°C° 0.2 mm 0 mps 604 mmHg 90%
22:00 +14°C° 0.2 mm 0 mps 604 mmHg 91%
23:00 +13°C° 0.2 mm 0 mps 604 mmHg 93%

18 July, Saturday

Time Temperature Precipitation Wind Pressure Humidity
00:00 +14°C° 0.2 mm 1 mps 604 mmHg 93%
01:00 +14°C° 0.2 mm 1 mps 604 mmHg 93%
02:00 +14°C° 0.2 mm 1 mps 604 mmHg 93%
03:00 +14°C° 0 mm 1 mps 604 mmHg 92%
04:00 +13°C° 0 mm 1 mps 604 mmHg 91%
05:00 +13°C° 0 mm 1 mps 603 mmHg 89%
06:00 +14°C° 0 mm 2 mps 604 mmHg 87%
07:00 +14°C° 0 mm 2 mps 605 mmHg 85%
08:00 +15°C° 0 mm 2 mps 606 mmHg 82%
09:00 +16°C° 0 mm 2 mps 606 mmHg 77%
10:00 +18°C° 0 mm 2 mps 606 mmHg 72%
11:00 +19°C° 0 mm 2 mps 606 mmHg 67%
12:00 +19°C° 0.1 mm 2 mps 606 mmHg 70%
13:00 +19°C° 0.1 mm 2 mps 605 mmHg 73%
14:00 +19°C° 0.1 mm 1 mps 604 mmHg 76%
15:00 +18°C° 0.1 mm 1 mps 604 mmHg 78%
16:00 +18°C° 0.1 mm 1 mps 604 mmHg 80%
17:00 +16°C° 0.1 mm 1 mps 603 mmHg 83%
18:00 +16°C° 0 mm 1 mps 604 mmHg 80%
19:00 +15°C° 0 mm 2 mps 604 mmHg 78%
20:00 +15°C° 0 mm 2 mps 605 mmHg 75%
21:00 +15°C° 0 mm 2 mps 604 mmHg 75%
22:00 +15°C° 0 mm 2 mps 604 mmHg 74%
23:00 +14°C° 0 mm 2 mps 604 mmHg 74%

19 July, Sunday

Time Temperature Precipitation Wind Pressure Humidity
00:00 +14°C° 0 mm 2 mps 604 mmHg 74%
01:00 +14°C° 0 mm 2 mps 604 mmHg 74%
02:00 +14°C° 0 mm 2 mps 603 mmHg 75%
03:00 +13°C° 0 mm 1 mps 603 mmHg 75%
04:00 +13°C° 0 mm 1 mps 604 mmHg 75%
05:00 +13°C° 0 mm 1 mps 604 mmHg 75%
06:00 +14°C° 0 mm 1 mps 604 mmHg 73%
07:00 +15°C° 0 mm 2 mps 605 mmHg 72%
08:00 +16°C° 0 mm 2 mps 606 mmHg 71%
09:00 +17°C° 0 mm 2 mps 606 mmHg 66%
10:00 +19°C° 0 mm 2 mps 607 mmHg 61%
11:00 +21°C° 0 mm 2 mps 607 mmHg 57%
12:00 +22°C° 0.1 mm 1 mps 606 mmHg 59%
13:00 +22°C° 0.1 mm 1 mps 606 mmHg 60%
14:00 +22°C° 0.1 mm 1 mps 605 mmHg 62%
15:00 +21°C° 0.3 mm 1 mps 605 mmHg 69%
16:00 +20°C° 0.3 mm 1 mps 604 mmHg 76%
17:00 +19°C° 0.3 mm 1 mps 604 mmHg 83%
18:00 +18°C° 0.2 mm 1 mps 604 mmHg 84%
19:00 +16°C° 0.2 mm 1 mps 604 mmHg 86%
20:00 +16°C° 0.2 mm 1 mps 605 mmHg 88%
21:00 +15°C° 0.1 mm 1 mps 605 mmHg 89%
22:00 +15°C° 0.1 mm 1 mps 605 mmHg 89%
23:00 +15°C° 0.1 mm 1 mps 604 mmHg 90%

20 July, Monday

Time Temperature Precipitation Wind Pressure Humidity
00:00 +13°C° 0 mm 0 mps 604 mmHg 91%
01:00 +13°C° 0 mm 0 mps 604 mmHg 92%
02:00 +13°C° 0 mm 0 mps 603 mmHg 92%
03:00 +12°C° 0 mm 0 mps 603 mmHg 92%
04:00 +12°C° 0 mm 0 mps 603 mmHg 92%
05:00 +12°C° 0 mm 0 mps 604 mmHg 92%
06:00 +14°C° 0 mm 1 mps 604 mmHg 88%
07:00 +16°C° 0 mm 1 mps 605 mmHg 85%
08:00 +18°C° 0 mm 1 mps 606 mmHg 81%
09:00 +19°C° 0.1 mm 1 mps 606 mmHg 75%
10:00 +21°C° 0.1 mm 1 mps 606 mmHg 70%
11:00 +22°C° 0.1 mm 1 mps 606 mmHg 64%
12:00 +22°C° 0.9 mm 1 mps 606 mmHg 67%
13:00 +21°C° 0.9 mm 2 mps 605 mmHg 71%
14:00 +21°C° 0.9 mm 2 mps 605 mmHg 74%
15:00 +20°C° 1.7 mm 2 mps 604 mmHg 80%
16:00 +19°C° 1.7 mm 1 mps 604 mmHg 85%
17:00 +16°C° 1.7 mm 0 mps 603 mmHg 91%
18:00 +18°C° 1.6 mm 1 mps 604 mmHg 92%
19:00 +16°C° 1.6 mm 1 mps 604 mmHg 93%
20:00 +16°C° 1.6 mm 1 mps 604 mmHg 95%
21:00 +16°C° 0.9 mm 1 mps 604 mmHg 95%
22:00 +15°C° 0.9 mm 1 mps 604 mmHg 95%
23:00 +15°C° 0.9 mm 1 mps 604 mmHg 96%
Show more